Flag for Poland Weather past 2 weeks in Wroclaw, Poland

Now
66 °F

Passing clouds.


Feels Like: 66 °F
Forecast: 61 / 80 °F
Wind: 8 mph from East

Location: Wroclaw Ii

Current Time: Jul 25, 2014 at 1:05:53 AM

Latest Report: Jul 25, 2014 at 12:30 AM


Visibility: N/A

Pressure: 29.95 "Hg

Humidity: 88%

Dew point: 63 °F

Location of WroclawLocation

Historic Weather in Wroclaw — Graph

°F

Wroclaw temperature yesterday

Maximum temperature yesterday: 68 °F (at 6:30 PM)
Minimum temperature yesterday: 61 °F (at 4:30 AM)
Average temperature yesterday: 64 °F

Past Weeks' High & Low Weather Summary

 TemperatureHumidityPressure
High93 °F (Jul 20, 5:00 PM)94% (Jul 10, 12:30 AM)30.18 "Hg (Jul 10, 12:30 AM)
Low55 °F (Jul 13, 2:30 AM)26% (Jul 20, 6:00 PM)29.65 "Hg (Jul 10, 12:00 AM)
Average72 °F67%29.94 "Hg
* Reported Midnight between Jul 9 and Jul 10 — Midnight between Jul 24 and Jul 25, Wroclaw, Weather by CustomWeather, © 2014

Note: Actual official high and low records may vary slightly from our data, if they occured in-between our weather recording intervals... More about our weather records

Advertising

Wroclaw weather history for previous 24 hours

 ConditionsComfort  
Time TempWeatherWind HumidityBarometerVisibility
12:00 AM
Jul 25
66 °FPassing clouds.7 mph88%29.95 "HgN/A
11:30 PM
Jul 24
66 °FPassing clouds.7 mph88%29.95 "HgN/A
11:00 PM66 °FPassing clouds.7 mph88%29.92 "HgN/A
10:30 PM66 °FPassing clouds.9 mph88%29.92 "HgN/A
10:00 PM66 °FMostly cloudy.9 mph94%29.92 "HgN/A
9:30 PM68 °FMostly cloudy.9 mph88%29.92 "HgN/A
9:00 PM68 °FMostly cloudy.12 mph88%29.92 "HgN/A
8:30 PM68 °FPartly sunny.10 mph88%29.89 "HgN/A
8:00 PM68 °FPartly sunny.10 mph88%29.89 "HgN/A
7:30 PM68 °FLight rain. Partly sunny.13 mph88%29.89 "HgN/A
7:00 PM68 °FLight rain. Partly sunny.14 mph88%29.89 "HgN/A
6:30 PM68 °FPartly sunny.14 mph88%29.89 "HgN/A
6:00 PM66 °FPartly sunny.10 mph94%29.89 "HgN/A
5:30 PM66 °FLight rain. Broken clouds.14 mph88%29.89 "Hg5 mi
5:00 PM66 °FLight rain. Fog.12 mph88%29.89 "Hg2 mi
4:30 PM66 °FLight rain. Fog.10 mph88%29.89 "Hg2 mi
4:00 PM66 °FLight rain. Fog.13 mph88%29.89 "Hg2 mi
3:30 PM64 °FLight rain. Fog.13 mph94%29.89 "Hg2 mi
3:00 PM64 °FLight rain. Fog.13 mph88%29.89 "Hg3 mi
2:30 PM64 °FLight rain. Fog.13 mph88%29.89 "Hg2 mi
2:00 PM64 °FLight rain. Partly sunny.10 mph88%29.89 "Hg4 mi
1:30 PM64 °FRain. Fog.9 mph88%29.89 "Hg2 mi
1:00 PM63 °FLight rain. Fog.9 mph94%29.89 "Hg3 mi
12:30 PM64 °FHeavy rain. Fog.9 mph88%29.89 "Hg2 mi
12:00 PM64 °FRain. Fog.12 mph88%29.89 "Hg3 mi
11:30 AM64 °FLight rain. Broken clouds.12 mph88%29.89 "Hg5 mi
11:00 AM64 °FLight rain. Partly sunny.12 mph88%29.92 "HgN/A
10:30 AM64 °FLight rain. Partly sunny.10 mph88%29.92 "HgN/A
10:00 AM64 °FLight rain. Broken clouds.9 mph88%29.92 "Hg5 mi
9:30 AM63 °FLight rain. Partly sunny.9 mph94%29.95 "Hg5 mi
9:00 AM63 °FLight rain. Scattered clouds.7 mph94%29.95 "Hg5 mi
8:30 AM63 °FLight rain. Scattered clouds.7 mph88%29.95 "Hg5 mi
7:30 AM63 °FPassing clouds.6 mph88%29.95 "HgN/A
7:00 AM63 °FPassing clouds.7 mph88%29.95 "HgN/A
6:30 AM61 °FScattered clouds.7 mph88%29.95 "HgN/A
6:00 AM61 °FSprinkles. Passing clouds.6 mph88%29.95 "HgN/A
5:30 AM61 °FSprinkles. Passing clouds.5 mph88%29.95 "HgN/A
5:00 AM61 °FPassing clouds.5 mph88%29.98 "HgN/A
4:30 AM61 °FPassing clouds.5 mph94%29.98 "HgN/A
4:00 AM63 °FPassing clouds.6 mph88%29.98 "HgN/A
3:30 AM63 °FPassing clouds.5 mph88%29.98 "HgN/A
3:00 AM63 °FPassing clouds.6 mph88%29.98 "HgN/A
2:30 AM63 °FPassing clouds.3 mph88%29.98 "HgN/A
2:00 AM63 °FLots of rain. Passing clouds.6 mph88%29.98 "Hg4 mi
1:30 AM64 °FPassing clouds.3 mph78%29.98 "HgN/A
1:00 AM64 °FPassing clouds.8 mph78%30.01 "HgN/A
Weather by CustomWeather, © 2014

See weather overviewHow to use our weather pages